Stillwater, OK

6:50 PM CST on February 24, 2018 (GMT -0600)
Stillwater Municipal

Weather History for KSWO - August, 2013

Change the Weather History Date:

Friday, August 9, 2013

  Actual Average Record
Temperature  
Mean Temperature 76 °F -  
Max Temperature 84 °F 90 °F 109 °F (2006)
Min Temperature 69 °F 66 °F 62 °F (1997)
Cooling Degree Days 10    
Growing Degree Days 26 (Base 50)    
Moisture  
Dew Point 71 °F    
Average Humidity 85    
Maximum Humidity 100    
Minimum Humidity 63    
Precipitation  
Precipitation 0.60 in - - ()
Sea Level Pressure  
Sea Level Pressure 29.97 in    
Wind  
Wind Speed 8 mph (North)    
Max Wind Speed 16 mph    
Max Gust Speed 29 mph    
Visibility 9 miles    
Events Rain , Thunderstorm    
Averages and records for this station are not official NWS values.
T = Trace of Precipitation, MM = Missing Value Source: NWS Daily Summary

Daily Weather History Graph

Daily Weather History Graph

Search for Another Location

Airport or City:

Trip Planner

Search our weather history database for the weather conditions in past years. The results will help you decide how hot, cold, wet, or windy it might be!

Date:

Astronomy

Aug. 09, 2013 Rise Set
Actual Time 6:41 AM CDT 8:25 PM CDT
Civil Twilight 6:14 AM CDT 8:52 PM CDT
Nautical Twilight 5:40 AM CDT 9:26 PM CDT
Astronomical Twilight 5:05 AM CDT 10:01 PM CDT
Moon 9:22 AM CDT (8/9) 9:43 PM CDT (8/9)
Length of Visible Light 14h 38m
Length of Day
13h 43m
Waxing Crescent, 8% of the Moon is Illuminated
Aug 9
Waxing Crescent
Aug 14
First Quarter
Aug 20
Full
Aug 28
Last Quarter
Sep 5
New

Hourly Weather History & Observations

Time (CDT) Temp. Heat Index Dew Point Humidity Pressure Visibility Wind Dir Wind Speed Gust Speed Precip Events Conditions
12:15 AM 77.0 °F - 73.4 °F 89% 29.91 in 10.0 mi ENE 11.5 mph - N/A   Scattered Clouds
12:36 AM 77.0 °F - 73.4 °F 89% 29.91 in 10.0 mi ENE 9.2 mph - 0.00 in Rain , Thunderstorm Light Rain
12:53 AM 75.9 °F - 75.0 °F 97% 29.92 in 7.0 mi South 4.6 mph - 0.03 in Rain , Thunderstorm Thunderstorms and Rain
1:02 AM 77.0 °F - 75.2 °F 94% 29.95 in 6.0 mi Calm Calm - 0.02 in Rain , Thunderstorm Thunderstorms and Rain
1:28 AM 75.2 °F - 73.4 °F 94% 29.96 in 5.0 mi East 8.1 mph 17.3 mph 0.12 in Rain , Thunderstorm Thunderstorms and Rain
1:40 AM 73.4 °F - 71.6 °F 94% 29.98 in 2.5 mi WNW 16.1 mph 27.6 mph 0.20 in Rain , Thunderstorm Heavy Thunderstorms and Rain
1:48 AM 69.8 °F - 68.0 °F 94% 29.99 in 2.0 mi NW 13.8 mph 28.8 mph 0.28 in Rain , Thunderstorm Heavy Thunderstorms and Rain
1:53 AM 70.0 °F - 69.1 °F 97% 29.95 in 2.5 mi West 16.1 mph 28.8 mph 0.30 in Rain , Thunderstorm Heavy Thunderstorms and Rain
2:04 AM 69.8 °F - 69.8 °F 100% 29.98 in 3.0 mi West 12.7 mph 24.2 mph 0.08 in Rain , Thunderstorm Heavy Thunderstorms and Rain
2:11 AM 69.8 °F - 69.8 °F 100% 29.98 in 3.0 mi WSW 12.7 mph 20.7 mph 0.13 in Rain , Thunderstorm Heavy Thunderstorms and Rain
2:53 AM 71.1 °F - 69.1 °F 93% 29.91 in 9.0 mi SE 3.5 mph - 0.21 in Rain , Thunderstorm Rain
3:13 AM 71.6 °F - 69.8 °F 94% 29.94 in 7.0 mi East 4.6 mph - 0.03 in Rain , Thunderstorm Rain
3:50 AM 71.6 °F - 69.8 °F 94% 29.95 in 10.0 mi Calm Calm - 0.05 in   Partly Cloudy
3:53 AM 71.1 °F - 69.1 °F 93% 29.91 in 10.0 mi Calm Calm - 0.05 in   Partly Cloudy
4:53 AM 71.1 °F - 70.0 °F 96% 29.89 in 10.0 mi ESE 6.9 mph - N/A   Clear
5:53 AM 70.0 °F - 69.1 °F 97% 29.91 in 10.0 mi Calm Calm - N/A   Clear
6:53 AM 71.1 °F - 69.1 °F 93% 29.90 in 10.0 mi Calm Calm - 0.00 in Rain Light Rain
7:53 AM 71.1 °F - 69.1 °F 93% 29.91 in 10.0 mi Calm Calm - 0.01 in   Mostly Cloudy
8:53 AM 72.0 °F - 70.0 °F 93% 29.92 in 10.0 mi South 4.6 mph - N/A   Overcast
9:53 AM 73.0 °F - 70.0 °F 90% 29.94 in 10.0 mi West 4.6 mph - N/A   Mostly Cloudy
10:06 AM 75.2 °F - 71.6 °F 89% 29.99 in 10.0 mi NW 5.8 mph - N/A   Mostly Cloudy
10:53 AM 77.0 °F - 70.0 °F 79% 29.97 in 10.0 mi NW 3.5 mph - N/A   Overcast
11:33 AM 80.6 °F 84.6 °F 71.6 °F 74% 30.01 in 10.0 mi NW 3.5 mph - N/A   Overcast
11:53 AM 80.1 °F 83.2 °F 70.0 °F 71% 29.97 in 10.0 mi North 4.6 mph - N/A   Overcast
12:53 PM 80.1 °F 83.6 °F 71.1 °F 74% 29.97 in 10.0 mi NNW 6.9 mph - N/A   Overcast
1:53 PM 82.0 °F 86.7 °F 72.0 °F 71% 29.98 in 10.0 mi North 9.2 mph - N/A   Overcast
2:04 PM 82.4 °F 87.2 °F 71.6 °F 70% 30.01 in 10.0 mi North 6.9 mph - N/A   Mostly Cloudy
2:31 PM 80.6 °F 84.6 °F 71.6 °F 74% 30.01 in 10.0 mi NNE 8.1 mph - N/A   Mostly Cloudy
2:45 PM 82.4 °F 87.2 °F 71.6 °F 70% 30.01 in 10.0 mi North 6.9 mph - N/A   Overcast
2:53 PM 82.0 °F 86.7 °F 72.0 °F 71% 29.97 in 10.0 mi NNW 8.1 mph - N/A   Overcast
3:33 PM 80.6 °F 84.6 °F 71.6 °F 74% 30.01 in 10.0 mi North 12.7 mph - N/A   Overcast
3:40 PM 82.4 °F 87.2 °F 71.6 °F 70% 30.01 in 10.0 mi NNE 11.5 mph - N/A   Mostly Cloudy
3:53 PM 82.9 °F 87.5 °F 71.1 °F 67% 29.97 in 10.0 mi North 11.5 mph - N/A   Mostly Cloudy
4:53 PM 82.9 °F 88.0 °F 72.0 °F 69% 29.97 in 10.0 mi NNE 9.2 mph - N/A   Mostly Cloudy
5:53 PM 82.9 °F 86.5 °F 69.1 °F 63% 29.96 in 10.0 mi NNE 9.2 mph - N/A   Scattered Clouds
6:53 PM 82.0 °F 85.9 °F 70.0 °F 67% 29.96 in 10.0 mi North 9.2 mph 18.4 mph N/A   Scattered Clouds
7:53 PM 75.9 °F - 69.1 °F 79% 29.99 in 10.0 mi NNE 10.4 mph - N/A   Clear
8:53 PM 73.0 °F - 69.1 °F 87% 30.01 in 10.0 mi NNE 8.1 mph - N/A   Clear
9:53 PM 71.1 °F - 68.0 °F 90% 30.03 in 10.0 mi NNE 9.2 mph - N/A   Clear
10:53 PM 70.0 °F - 68.0 °F 93% 30.04 in 10.0 mi North 8.1 mph - N/A   Clear
11:53 PM 69.1 °F - 66.9 °F 93% 30.07 in 10.0 mi North 4.6 mph - N/A   Clear